Home   Weather   Wakefield   Past weeks

Flag for United Kingdom Past Weather in Wakefield, England, United Kingdom — Yesterday and Last 2 Weeks

48 °F

Passing clouds.

Feels Like: 46 °F
Forecast: 39 / 55 °F
Wind: 6 mph from East

Location: Leeds And Bradford

Current Time: Oct 24, 2016 at 1:33:42 PM

Latest Report: Oct 24, 2016 at 12:50 PM

Visibility: N/A

Pressure: 29.98 "Hg

Humidity: 94%

Dew Point: 46 °F

Location of WakefieldLocation

Past Weather in Wakefield — Graph


Wakefield Temperature Yesterday

Maximum temperature yesterday: 48 °F (at 12:20 PM)
Minimum temperature yesterday: 41 °F (at 10:50 PM)
Average temperature yesterday: 45 °F

High & Low Weather Summary for the Past Weeks

High57 °F (Oct 16, 3:20 PM)100% (Oct 9, 11:50 PM)30.42 "Hg (Oct 9, 11:50 PM)
Low41 °F (Oct 23, 10:50 PM)67% (Oct 16, 4:20 PM)29.65 "Hg (Oct 15, 3:50 AM)
Average47 °F92%30.04 "Hg
* Reported Oct 9 12:20 PM — Oct 24 12:20 PM, Wakefield, Weather by CustomWeather, © 2016

Note: Actual official high and low records may vary slightly from our data, if they occured in-between our weather recording intervals... More about our weather records


Wakefield Weather History for the Previous 24 Hours

Scroll right to see more
Time TempWeatherWind HumidityBarometerVisibility
12:20 PM
Mon, Oct 24
48 °FPassing clouds.6 mph94%29.98 "HgN/A
11:50 AM48 °FPassing clouds.6 mph94%29.98 "HgN/A
11:20 AM46 °FPassing clouds.7 mph100%29.98 "HgN/A
10:50 AM46 °FPassing clouds.8 mph93%29.98 "HgN/A
10:20 AM45 °FPassing clouds.6 mph100%29.98 "HgN/A
9:50 AM43 °FPassing clouds.6 mph100%29.98 "HgN/A
9:20 AM43 °FPassing clouds.5 mph100%29.98 "HgN/A
8:50 AM43 °FPassing clouds.5 mph93%29.98 "HgN/A
8:20 AM41 °FPassing clouds.5 mph100%29.95 "HgN/A
7:50 AM41 °FPassing clouds.5 mph100%29.95 "HgN/A
7:20 AM41 °FPassing clouds.8 mph100%29.92 "HgN/A
6:50 AM41 °FClear.9 mph100%29.92 "Hg10 mi
6:20 AM41 °FPassing clouds.7 mph93%29.95 "HgN/A
5:50 AM41 °FPassing clouds.8 mph100%29.95 "HgN/A
5:20 AM41 °FClear.7 mph93%29.95 "Hg10 mi
4:50 AM41 °FPassing clouds.6 mph93%29.95 "HgN/A
4:20 AM41 °FPassing clouds.6 mph93%29.95 "HgN/A
3:50 AM41 °FPassing clouds.6 mph93%29.95 "HgN/A
3:20 AM41 °FPassing clouds.7 mph93%29.95 "HgN/A
2:50 AM41 °FPassing clouds.7 mph93%29.95 "HgN/A
2:20 AM41 °FPassing clouds.7 mph93%29.95 "HgN/A
1:50 AM41 °FPassing clouds.6 mph93%29.95 "HgN/A
1:20 AM41 °FClear.3 mph93%29.95 "Hg10 mi
12:50 AM41 °FPassing clouds.6 mph93%29.95 "HgN/A
12:20 AM41 °FPassing clouds.6 mph93%29.95 "HgN/A
11:50 PM
Sun, Oct 23
41 °FPassing clouds.7 mph93%29.95 "HgN/A
11:20 PM41 °FPassing clouds.8 mph93%29.95 "HgN/A
10:50 PM41 °FPassing clouds.8 mph100%29.95 "HgN/A
10:20 PM43 °FPassing clouds.10 mph93%29.95 "HgN/A
9:50 PM43 °FPassing clouds.9 mph93%29.95 "HgN/A
9:20 PM45 °FPassing clouds.10 mph93%29.95 "HgN/A
8:50 PM45 °FPartly cloudy.7 mph93%29.95 "HgN/A
8:20 PM45 °FPartly cloudy.8 mph100%29.95 "HgN/A
7:50 PM45 °FPartly cloudy.9 mph100%29.95 "HgN/A
7:20 PM45 °FPartly cloudy.8 mph100%29.95 "HgN/A
6:50 PM46 °FPassing clouds.9 mph93%29.95 "HgN/A
6:20 PM46 °FPassing clouds.7 mph93%29.92 "HgN/A
5:50 PM46 °FPassing clouds.8 mph87%29.92 "HgN/A
5:20 PM46 °FScattered clouds.8 mph87%29.92 "HgN/A
4:50 PM48 °FScattered clouds.8 mph87%29.92 "HgN/A
4:20 PM48 °FScattered clouds.8 mph87%29.92 "HgN/A
3:50 PM48 °FScattered clouds.8 mph82%29.92 "HgN/A
3:20 PM48 °FScattered clouds.10 mph82%29.92 "HgN/A
2:50 PM48 °FScattered clouds.8 mph87%29.92 "HgN/A
2:20 PM46 °FScattered showers. Scattered clouds.6 mph93%29.95 "HgN/A
1:50 PM48 °FScattered clouds.7 mph82%29.95 "HgN/A
1:20 PM48 °FScattered clouds.8 mph76%29.95 "HgN/A
Weather by CustomWeather, © 2016

See weather overviewHow to use our weather pages